Regional Weather Roundup
Issued by NWS

Home | Current Version | Previous Version | Text Only | Print | Product List | Glossary Off
Versions: 1 2 3 4 5 6 7 8 9 10 11 12 13 14 15 16 17 18 19 20 21 22 23 24 25 26 27 28 29 30 31 32 33 34 35 36 37 38 39 40 41 42 43 44 45 46 47 48 49 50

000
ASUS43 KFSD 080110
RWRSD

WEATHER ROUNDUP FOR SOUTH DAKOTA
NATIONAL WEATHER SERVICE SIOUX FALLS SD
700 PM CST WED DEC 07 2016

NOTE: "FAIR" INDICATES FEW OR NO CLOUDS BELOW 12,000 FEET WITH NO
SIGNIFICANT WEATHER AND/OR OBSTRUCTIONS TO VISIBILITY.


SDZ001>005-009-010-012>017-080200-
NORTHWEST AND NORTH CENTRAL SOUTH DAKOTA

CITY           SKY/WX    TMP DP  RH WIND       PRES   REMARKS
BUFFALO          N/A      2  -6  69 NW26      30.35R WCI -22
FAITH            N/A      2  -4  76 NW25G35   30.41R WCI -22
MOBRIDGE       MIX PCPN   6  -3  66 NW28G40   30.36R WCI -17
$$

SDZ012>016-024>037-041>051-057-063-072>074-080200-
SOUTHWEST AND SOUTH CENTRAL SOUTH DAKOTA

CITY           SKY/WX    TMP DP  RH WIND       PRES   REMARKS
RAPID CTY ARPT CLEAR      4  -6  63 N14       30.41R WCI -14
PIERRE         CLOUDY    11   3  70 NW28G38   30.43R WCI -10
CUSTER         CLEAR      2 -11  54 N3        30.20R
ELLSWORTH AFB  CLEAR      5  -5  63 N10       30.40R WCI -10
PHILIP         CLEAR      8  -2  63 NW23G32   30.45R WCI -13
PINE RIDGE     CLEAR     -2  -7  79 SW6       30.41R WCI -14
SPEARFISH      FAIR       3  -6  66 W16G22    30.39R WCI -16
WINNER         FAIR      11   1  64 NW18G28   30.43R WCI  -7
$$

SDZ004>011-016>023-039-040-080200-
NORTHEAST SOUTH DAKOTA

CITY           SKY/WX    TMP DP  RH WIND       PRES   REMARKS
ABERDEEN       LGT SNOW   8   0  69 NW25G33   30.32R WCI -13
WATERTOWN      CLOUDY     7   2  80 W23G32    30.23R HAZE    WCI -14
BROOKINGS      CLEAR      8   3  80 NW23G30   30.24R WCI -13
SISSETON         N/A     11   4  73 NW23G35   30.21R WCI  -9
$$

SDZ017-020-022-023-036>040-048>070-080200-
SOUTHEAST SOUTH DAKOTA

CITY           SKY/WX    TMP DP  RH WIND       PRES   REMARKS
SIOUX FALLS    PTCLDY    13   5  70 NW22G30   30.29R WCI  -6
HURON          MIX PCPN  10   2  69 NW30G38   30.37R WCI -12
CHAMBERLAIN    CLOUDY    13   4  67 NW23G33   30.42R WCI  -6
MITCHELL       CLOUDY    14   4  64 NW26G35   30.39R WCI  -6
YANKTON        PTCLDY    16   3  57 W21G30    30.37R WCI  -2
$$

ABBREVIATIONS USED IN REMARKS
   TC - TEMPERATURE IN CELSIUS
  WCI - WIND CHILL INDEX
   HX - HEAT INDEX
  VSB - VISIBILITY




USA.gov is the U.S. government's official web portal to all federal, state and local government web resources and services.